FW7213 Weather Reports


Display with metric or nautical units.
time (UTC)temp
F
wind
direction
speed
MPH
gust
MPH
rain 1hr
in
rain 24hr
in
rain mn
in
humidity
%
barometer
mb
20260509090057 62 0 0.0 1.0 0.00 0.18 0.00 97 1012.6
20260509085558 61 0 0.0 3.0 0.00 0.18 0.00 97 1012.8
20260509085100 61 0 1.0 3.0 0.00 0.18 0.00 97 1012.7
20260509084600 61 155 0.0 2.0 0.00 0.18 0.00 97 1012.8
20260509084058 61 145 1.0 2.0 0.00 0.18 0.00 97 1012.7
20260509083557 62 142 1.0 2.0 0.00 0.18 0.00 97 1013.0
20260509083055 62 147 0.0 0.0 0.00 0.18 0.00 97 1013.1
20260509082557 62 0 0.0 0.0 0.00 0.18 0.00 97 1013.2
20260509082057 62 0 0.0 0.0 0.00 0.18 0.00 97 1013.0
20260509081558 62 0 0.0 0.0 0.00 0.18 0.00 97 1013.0
20260509081059 61 0 0.0 0.0 0.00 0.18 0.00 97 1013.2
20260509080558 61 0 0.0 1.0 0.00 0.18 0.00 97 1013.2
20260509080057 61 0 0.0 1.0 0.00 0.18 0.00 97 1012.9
20260509075558 61 0 0.0 2.0 0.00 0.18 0.00 97 1012.9
20260509075058 61 146 0.0 2.0 0.00 0.18 0.00 97 1012.8
20260509074605 61 147 1.0 2.0 0.00 0.18 0.00 97 1012.8
20260509074057 61 145 1.0 2.0 0.00 0.18 0.00 97 1012.7
20260509073558 61 0 0.0 0.0 0.00 0.18 0.00 97 1012.6
20260509073102 61 146 0.0 1.0 0.00 0.18 0.00 97 1012.9
20260509072558 61 0 0.0 2.0 0.00 0.18 0.00 97 1013.1
20260509072059 61 146 0.0 2.0 0.00 0.18 0.00 97 1013.0
20260509071607 61 150 1.0 2.0 0.00 0.18 0.00 97 1012.8
20260509071058 61 149 1.0 1.0 0.00 0.18 0.00 97 1012.9
20260509070558 61 148 0.0 1.0 0.00 0.18 0.00 97 1012.7
20260509070059 61 146 0.0 2.0 0.00 0.18 0.00 97 1012.8
20260509065601 61 140 0.0 3.0 0.00 0.18 0.00 97 1012.9
20260509065058 61 0 1.0 3.0 0.00 0.18 0.00 97 1013.1
20260509064614 61 143 1.0 3.0 0.00 0.18 0.00 97 1013.1
20260509064059 61 144 2.0 3.0 0.00 0.18 0.00 97 1013.2
20260509063559 61 142 1.0 2.0 0.00 0.18 0.00 97 1013.1
20260509063057 61 139 2.0 2.0 0.00 0.18 0.00 97 1013.4
20260509062558 61 145 0.0 1.0 0.00 0.18 0.00 97 1013.5
20260509062058 61 0 0.0 1.0 0.00 0.18 0.00 97 1013.4
20260509061622 61 0 0.0 0.0 0.00 0.18 0.00 97 1013.4
20260509061057 61 0 0.0 1.0 0.00 0.18 0.00 97 1013.4
20260509060558 61 0 0.0 1.0 0.00 0.18 0.00 97 1013.2
20260509060058 61 143 0.0 1.0 0.00 0.18 0.00 97 1013.0
20260509055558 61 0 0.0 1.0 0.00 0.18 0.00 97 1013.2
20260509055059 61 0 0.0 0.0 0.00 0.18 0.00 97 1013.3
20260509054557 61 0 0.0 0.0 0.00 0.18 0.00 97 1013.3
20260509054059 61 0 0.0 1.0 0.00 0.18 0.00 97 1013.5
20260509053557 61 0 0.0 1.0 0.00 0.18 0.00 97 1013.5
20260509053059 61 143 0.0 1.0 0.00 0.18 0.00 97 1013.5
20260509052556 61 0 0.0 2.0 0.00 0.18 0.00 97 1013.5
20260509052058 61 0 0.0 2.0 0.00 0.18 0.00 97 1013.5
20260509051601 61 141 0.0 1.0 0.00 0.18 0.00 97 1013.4
20260509051058 61 0 0.0 0.0 0.00 0.18 0.00 97 1013.4
20260509050559 61 0 0.0 1.0 0.00 0.18 0.00 97 1013.3
20260509050108 61 0 0.0 1.0 0.00 0.18 0.00 97 1013.4
20260509045556 61 0 0.0 1.0 0.00 0.18 0.18 97 1013.3
20260509045056 61 0 0.0 0.0 0.00 0.18 0.18 97 1013.4
20260509044557 61 0 0.0 0.0 0.00 0.18 0.18 97 1013.1
20260509044056 61 0 0.0 0.0 0.00 0.18 0.18 97 1013.3
20260509043556 61 0 0.0 1.0 0.00 0.18 0.18 97 1013.3
20260509043106 61 0 0.0 1.0 0.00 0.18 0.18 97 1013.1
20260509042556 61 0 0.0 1.0 0.00 0.18 0.18 97 1013.0
20260509042056 61 91 0.0 1.0 0.00 0.18 0.18 97 1013.1
20260509041559 61 0 0.0 1.0 0.00 0.18 0.18 97 1013.2
20260509041101 61 0 0.0 1.0 0.00 0.18 0.18 97 1013.6
20260509040558 61 0 0.0 2.0 0.00 0.18 0.18 97 1013.4
20260509040057 61 0 0.0 2.0 0.00 0.18 0.18 97 1013.4
20260509035605 61 0 0.0 1.0 0.00 0.18 0.18 97 1013.4
20260509035057 61 0 0.0 1.0 0.00 0.18 0.18 97 1013.4
20260509034557 61 0 0.0 1.0 0.00 0.18 0.18 97 1013.4
20260509034056 62 0 0.0 1.0 0.00 0.18 0.18 97 1013.6
20260509033556 62 136 0.0 0.0 0.00 0.18 0.18 97 1013.7
20260509033059 61 0 0.0 0.0 0.00 0.18 0.18 97 1013.9
20260509032558 61 0 0.0 0.0 0.00 0.18 0.18 97 1013.8
20260509032055 62 0 0.0 0.0 0.00 0.18 0.18 97 1013.6
20260509031558 61 0 0.0 0.0 0.00 0.18 0.18 97 1013.4
20260509031056 61 0 0.0 0.0 0.00 0.18 0.18 97 1013.6
20260509030556 62 0 0.0 0.0 0.00 0.18 0.18 97 1013.9
20260509030056 62 0 0.0 0.0 0.00 0.18 0.18 97 1013.7
20260509025558 62 0 0.0 1.0 0.00 0.18 0.18 97 1013.8
20260509025055 62 0 0.0 1.0 0.00 0.18 0.18 97 1013.8
20260509024558 62 0 0.0 1.0 0.00 0.18 0.18 97 1014.2
20260509024059 62 339 0.0 1.0 0.00 0.18 0.18 97 1013.9
20260509023556 62 316 0.0 1.0 0.00 0.18 0.18 97 1014.1
20260509023055 62 0 0.0 1.0 0.00 0.18 0.18 97 1014.0
20260509022556 62 0 0.0 2.0 0.00 0.18 0.18 97 1013.7
20260509022055 62 0 0.0 3.0 0.00 0.18 0.18 97 1013.6
20260509021557 62 354 0.0 3.0 0.00 0.18 0.18 97 1013.8
20260509021056 62 0 2.0 3.0 0.00 0.18 0.18 97 1013.6
20260509020558 62 139 0.0 3.0 0.00 0.18 0.18 97 1013.9
20260509020058 62 347 0.0 3.0 0.00 0.18 0.18 97 1014.0
20260509015555 62 0 1.0 8.0 0.00 0.18 0.18 97 1013.8
20260509015056 62 0 1.0 8.0 0.00 0.18 0.18 97 1014.2
20260509014558 62 347 4.0 8.0 0.00 0.18 0.18 97 1014.6
20260509014055 62 345 1.0 14.0 0.00 0.18 0.18 97 1013.5
20260509013557 62 138 4.0 14.0 0.00 0.18 0.18 97 1012.1
20260509013059 62 166 7.0 14.0 0.00 0.18 0.18 97 1011.4
20260509012557 62 134 4.0 9.0 0.00 0.18 0.18 97 1011.9
20260509012101 62 107 2.0 5.0 0.00 0.18 0.18 97 1012.6
20260509011556 62 142 0.0 3.0 0.00 0.18 0.18 97 1013.0
20260509011055 62 92 0.0 3.0 0.00 0.18 0.18 97 1013.1
20260509010555 62 0 1.0 3.0 0.00 0.18 0.18 97 1013.4
20260509010104 62 0 0.0 2.0 0.00 0.18 0.18 97 1013.5
20260509005556 62 0 0.0 1.0 0.00 0.18 0.18 97 1013.7
20260509005058 62 0 0.0 1.0 0.00 0.18 0.18 97 1013.8
20260509004621 62 0 0.0 1.0 0.00 0.18 0.18 97 1014.0
20260509004055 62 0 0.0 1.0 0.00 0.18 0.18 97 1014.0
20260509003602 62 0 0.0 1.0 0.01 0.18 0.18 97 1013.7
20260509003057 62 0 0.0 1.0 0.01 0.18 0.18 97 1013.2
20260509002554 62 0 0.0 1.0 0.01 0.18 0.18 97 1013.4
20260509002058 62 0 0.0 3.0 0.01 0.18 0.18 97 1013.4
20260509001556 62 0 0.0 3.0 0.01 0.18 0.18 97 1013.5
20260509001055 62 304 0.0 2.0 0.01 0.18 0.18 97 1013.9
20260509000555 62 316 1.0 6.0 0.02 0.18 0.18 97 1013.7
20260509000056 62 10 1.0 12.0 0.02 0.18 0.18 97 1012.8
20260508235558 63 97 4.0 14.0 0.02 0.18 0.18 97 1012.2
20260508235059 63 117 6.0 14.0 0.02 0.18 0.18 97 1012.0
20260508234606 63 151 7.0 14.0 0.03 0.18 0.18 97 1012.0
20260508234100 63 162 5.0 10.0 0.03 0.18 0.18 97 1013.1
20260508233559 63 133 1.0 5.0 0.02 0.17 0.17 97 1014.1
20260508233058 64 136 3.0 4.0 0.03 0.17 0.17 97 1014.7
20260508232558 64 141 2.0 4.0 0.03 0.17 0.17 97 1015.2
20260508232058 64 122 2.0 3.0 0.04 0.17 0.17 97 1015.3
20260508231558 64 146 1.0 3.0 0.04 0.17 0.17 97 1015.6
20260508231056 64 152 1.0 2.0 0.05 0.17 0.17 97 1015.6
20260508230559 64 144 0.0 2.0 0.04 0.16 0.16 97 1015.8
20260508230058 64 148 0.0 2.0 0.04 0.16 0.16 97 1015.8
20260508225558 64 0 1.0 2.0 0.04 0.16 0.16 96 1015.7
20260508225057 65 0 0.0 1.0 0.05 0.16 0.16 97 1016.2
20260508224558 65 0 0.0 2.0 0.04 0.15 0.15 97 1016.4
20260508224057 65 0 0.0 2.0 0.04 0.15 0.15 97 1016.4
20260508223558 65 0 0.0 2.0 0.04 0.15 0.15 97 1016.5
20260508223058 65 224 1.0 2.0 0.03 0.14 0.14 97 1016.5
20260508222557 65 0 0.0 1.0 0.04 0.14 0.14 97 1016.2
20260508222057 65 201 0.0 1.0 0.03 0.13 0.13 97 1016.0
20260508221558 65 0 0.0 0.0 0.03 0.13 0.13 97 1016.0
20260508221056 65 0 0.0 0.0 0.02 0.12 0.12 97 1016.2
20260508220559 66 0 0.0 0.0 0.02 0.12 0.12 97 1016.2
20260508220100 66 0 0.0 0.0 0.02 0.12 0.12 97 1016.0
20260508215556 66 0 0.0 1.0 0.03 0.12 0.12 97 1015.9
20260508215055 66 0 0.0 1.0 0.02 0.11 0.11 96 1015.9
20260508214614 66 208 0.0 1.0 0.02 0.11 0.11 96 1016.1
20260508214055 66 0 0.0 1.0 0.02 0.11 0.11 96 1016.2
20260508213555 66 230 0.0 1.0 0.02 0.11 0.11 96 1016.0
20260508213057 66 295 0.0 0.0 0.01 0.10 0.10 96 1015.9
20260508212559 66 0 0.0 0.0 0.01 0.10 0.10 97 1015.7
20260508212056 66 0 0.0 1.0 0.01 0.10 0.10 96 1015.7
20260508211556 66 0 0.0 2.0 0.01 0.10 0.10 96 1015.6
20260508211058 66 0 0.0 2.0 0.01 0.10 0.10 96 1015.8
20260508210600 66 304 0.0 1.0 0.01 0.10 0.10 96 1016.0
20260508210100 66 0 0.0 1.0 0.01 0.10 0.10 96 1015.7
20260508205558 66 0 0.0 1.0 0.01 0.09 0.09 96 1015.5
20260508205058 66 0 0.0 1.0 0.02 0.09 0.09 96 1014.9
20260508204558 66 0 0.0 2.0 0.02 0.09 0.09 96 1014.3
20260508204055 66 96 0.0 2.0 0.03 0.09 0.09 95 1014.2
20260508203559 66 0 0.0 1.0 0.04 0.09 0.09 96 1014.2
20260508203057 66 0 0.0 1.0 0.04 0.09 0.09 96 1014.3
20260508202555 66 0 0.0 0.0 0.04 0.09 0.09 97 1014.7
20260508202058 65 0 0.0 0.0 0.05 0.09 0.09 96 1014.8
20260508201558 65 0 0.0 0.0 0.06 0.09 0.09 96 1015.1
20260508201058 66 0 0.0 0.0 0.06 0.09 0.09 97 1015.2
20260508200558 65 0 0.0 0.0 0.07 0.09 0.09 97 1015.1
20260508200057 65 0 0.0 0.0 0.08 0.09 0.09 97 1015.1
20260508195557 65 0 0.0 0.0 0.08 0.08 0.08 96 1015.6
20260508195101 65 0 0.0 0.0 0.07 0.07 0.07 96 1015.7
20260508194558 65 0 0.0 0.0 0.07 0.07 0.07 95 1015.9
20260508194055 65 0 0.0 0.0 0.06 0.06 0.06 95 1015.6
20260508193555 65 0 0.0 0.0 0.05 0.05 0.05 94 1015.7
20260508193110 66 0 0.0 0.0 0.05 0.05 0.05 94 1015.6
20260508192556 66 0 0.0 0.0 0.05 0.05 0.05 93 1015.6
20260508192101 66 0 0.0 0.0 0.04 0.04 0.04 93 1015.8
20260508191600 67 0 0.0 0.0 0.03 0.03 0.03 93 1015.7
20260508191101 67 0 0.0 0.0 0.03 0.03 0.03 91 1015.7
20260508190558 67 0 0.0 0.0 0.02 0.02 0.02 89 1015.7
20260508190108 68 0 0.0 0.0 0.01 0.01 0.01 88 1015.7
20260508185600 68 0 0.0 2.0 0.00 0.00 0.00 86 1015.8
20260508185055 69 0 0.0 2.0 0.00 0.00 0.00 86 1015.7
20260508184606 70 0 0.0 0.0 0.00 0.00 0.00 81 1015.9
20260508184058 70 0 0.0 0.0 0.00 0.00 0.00 79 1015.7
20260508183555 71 0 0.0 0.0 0.00 0.00 0.00 83 1015.5
20260508183116 71 0 0.0 0.0 0.00 0.00 0.00 82 1015.6
20260508182559 71 0 0.0 0.0 0.00 0.00 0.00 79 1015.7
20260508182058 71 0 0.0 1.0 0.00 0.00 0.00 78 1015.7
20260508181557 71 0 0.0 1.0 0.00 0.00 0.00 75 1015.5
20260508181101 72 0 0.0 2.0 0.00 0.00 0.00 75 1015.4
20260508180557 72 0 0.0 2.0 0.00 0.00 0.00 77 1015.3
20260508180110 72 87 0.0 2.0 0.00 0.00 0.00 73 1015.4
20260508175557 72 0 0.0 3.0 0.00 0.00 0.00 78 1015.5
20260508175056 73 75 1.0 3.0 0.00 0.00 0.00 71 1015.5
20260508174612 73 0 1.0 3.0 0.00 0.00 0.00 75 1015.5
20260508174058 73 0 0.0 3.0 0.00 0.00 0.00 75 1015.6
20260508173558 73 146 1.0 3.0 0.00 0.00 0.00 71 1015.7
20260508173058 73 0 0.0 3.0 0.00 0.00 0.00 71 1015.7
20260508172555 73 44 0.0 3.0 0.00 0.00 0.00 76 1015.6
20260508172055 73 141 1.0 3.0 0.00 0.00 0.00 72 1015.8
20260508171606 73 93 0.0 2.0 0.00 0.00 0.00 73 1016.0
20260508171100 73 81 0.0 2.0 0.00 0.00 0.00 74 1016.0
20260508170559 72 84 0.0 5.0 0.00 0.00 0.00 74 1016.1
20260508170107 72 0 1.0 5.0 0.00 0.00 0.00 76 1016.0
20260508165555 72 98 2.0 4.0 0.00 0.01 0.00 75 1016.0
20260508165058 72 148 1.0 5.0 0.00 0.01 0.00 77 1016.1
20260508164600 72 0 1.0 5.0 0.00 0.01 0.00 75 1016.1
20260508164058 72 134 1.0 5.0 0.00 0.01 0.00 75 1016.1
20260508163558 72 69 1.0 5.0 0.00 0.01 0.00 76 1016.2
20260508163057 72 162 2.0 6.0 0.00 0.01 0.00 76 1016.3
20260508162556 72 83 0.0 6.0 0.00 0.01 0.00 76 1016.2
20260508162056 72 129 1.0 4.0 0.00 0.01 0.00 74 1016.3
20260508161606 72 155 1.0 6.0 0.00 0.01 0.00 73 1016.3
20260508161055 72 143 1.0 6.0 0.00 0.01 0.00 75 1016.1
20260508160555 72 96 2.0 6.0 0.00 0.01 0.00 73 1016.2
20260508160058 72 162 1.0 5.0 0.00 0.01 0.00 75 1016.2
20260508155556 71 94 2.0 8.0 0.00 0.01 0.00 74 1016.3
20260508155059 72 153 3.0 8.0 0.00 0.01 0.00 72 1016.3
20260508154559 72 145 1.0 5.0 0.00 0.01 0.00 74 1016.4
20260508154058 72 116 0.0 5.0 0.00 0.01 0.00 77 1016.5
20260508153559 71 117 1.0 5.0 0.00 0.01 0.00 77 1016.5
20260508153059 71 30 1.0 11.0 0.00 0.01 0.00 77 1016.7
20260508152558 70 359 3.0 11.0 0.00 0.01 0.00 74 1016.7
20260508152058 70 70 2.0 8.0 0.00 0.01 0.00 77 1016.7
20260508151556 69 85 3.0 7.0 0.00 0.01 0.00 73 1016.7
20260508151059 69 91 1.0 7.0 0.00 0.01 0.00 75 1016.7
20260508150555 69 69 2.0 7.0 0.00 0.01 0.00 77 1016.8
20260508150059 69 94 0.0 10.0 0.00 0.01 0.00 79 1016.8
20260508145555 69 69 3.0 10.0 0.00 0.02 0.00 76 1016.8
20260508145055 69 0 2.0 7.0 0.00 0.02 0.00 79 1016.8
20260508144607 69 132 2.0 7.0 0.00 0.02 0.00 76 1016.9
20260508144101 68 0 1.0 7.0 0.00 0.02 0.00 80 1016.8
20260508143558 68 109 1.0 7.0 0.00 0.02 0.00 80 1016.8
20260508143101 68 61 2.0 9.0 0.00 0.02 0.00 80 1017.2
20260508142559 68 112 2.0 9.0 0.00 0.02 0.00 84 1017.0
20260508142059 68 45 0.0 7.0 0.00 0.02 0.00 80 1017.2
20260508141606 67 103 0.0 5.0 0.00 0.02 0.00 81 1017.0
20260508141059 67 115 0.0 9.0 0.00 0.02 0.00 83 1016.9
20260508140558 67 0 0.0 9.0 0.00 0.02 0.00 83 1017.0
20260508140058 67 91 2.0 9.0 0.00 0.02 0.00 85 1017.1
20260508135559 66 32 1.0 4.0 0.00 0.03 0.00 86 1017.2
20260508135058 66 79 1.0 4.0 0.00 0.03 0.00 87 1017.3
20260508134559 65 2 0.0 2.0 0.00 0.03 0.00 92 1017.3
20260508134055 65 259 0.0 2.0 0.00 0.03 0.00 89 1017.6
20260508133558 65 182 0.0 1.0 0.00 0.03 0.00 94 1017.4
20260508133058 64 0 0.0 2.0 0.00 0.03 0.00 92 1017.6
20260508132558 64 0 0.0 2.0 0.00 0.03 0.00 92 1017.6
20260508132058 63 94 1.0 2.0 0.00 0.03 0.00 92 1017.4
20260508131607 63 132 0.0 5.0 0.00 0.03 0.00 93 1017.5
20260508131058 63 0 0.0 5.0 0.00 0.03 0.00 94 1017.5
20260508130559 62 89 0.0 1.0 0.00 0.03 0.00 95 1017.4
20260508130055 62 0 0.0 1.0 0.00 0.03 0.00 95 1017.4
20260508125559 62 112 0.0 1.0 0.00 0.04 0.00 96 1017.5
20260508125055 62 0 0.0 1.0 0.00 0.04 0.00 97 1017.5
20260508124559 61 0 0.0 1.0 0.00 0.04 0.00 97 1017.5
20260508124058 61 0 0.0 1.0 0.00 0.04 0.00 97 1017.4
20260508123558 61 0 0.0 1.0 0.00 0.04 0.00 97 1017.5
20260508123116 61 0 0.0 1.0 0.00 0.04 0.00 97 1017.4
20260508122558 61 0 0.0 1.0 0.00 0.04 0.00 97 1017.3
20260508122056 60 0 0.0 1.0 0.00 0.04 0.00 97 1017.0
20260508121610 60 0 0.0 0.0 0.00 0.04 0.00 97 1017.1
20260508121058 60 0 0.0 0.0 0.00 0.04 0.00 97 1017.1
20260508120557 60 0 0.0 0.0 0.00 0.04 0.00 97 1016.9
20260508120112 60 0 0.0 1.0 0.00 0.04 0.00 97 1016.7
20260508115558 60 0 0.0 1.0 0.00 0.85 0.00 97 1016.8
20260508115055 60 0 0.0 4.0 0.00 0.85 0.00 97 1016.5
20260508114602 60 0 0.0 4.0 0.00 0.85 0.00 97 1016.3
20260508114058 60 0 0.0 2.0 0.00 0.85 0.00 97 1015.9
20260508113559 60 0 0.0 2.0 0.00 0.85 0.00 97 1015.9
20260508113110 59 0 0.0 2.0 0.00 0.85 0.00 97 1015.8
20260508112558 59 83 0.0 1.0 0.00 0.85 0.00 97 1015.9
20260508112058 59 0 0.0 1.0 0.00 0.85 0.00 97 1015.8
20260508111603 59 0 0.0 0.0 0.00 0.85 0.00 97 1016.0
20260508111059 59 0 0.0 0.0 0.00 0.85 0.00 97 1016.0
20260508110559 59 0 0.0 0.0 0.00 0.85 0.00 97 1015.9
20260508110107 59 0 0.0 0.0 0.00 0.85 0.00 97 1015.9
20260508105558 59 0 0.0 0.0 0.00 2.22 0.00 97 1015.9
20260508105058 59 0 0.0 0.0 0.00 2.22 0.00 97 1015.9
20260508104559 59 0 0.0 0.0 0.00 2.22 0.00 97 1015.9
20260508104058 59 0 0.0 1.0 0.00 2.22 0.00 97 1016.0
20260508103559 59 0 0.0 1.0 0.00 2.22 0.00 97 1015.9
20260508103108 59 0 0.0 1.0 0.00 2.22 0.00 97 1015.9
20260508102557 59 0 0.0 1.0 0.00 2.22 0.00 97 1015.8
20260508102059 59 0 0.0 1.0 0.00 2.22 0.00 97 1015.8
20260508101605 59 0 0.0 1.0 0.00 2.22 0.00 97 1015.9
20260508101058 59 0 0.0 1.0 0.00 2.22 0.00 97 1015.8
20260508100558 59 0 0.0 1.0 0.00 2.22 0.00 97 1015.7
20260508100111 59 0 0.0 1.0 0.00 2.22 0.00 97 1015.7
20260508095559 59 0 0.0 1.0 0.00 2.22 0.00 97 1015.7
20260508095059 59 0 0.0 1.0 0.00 2.22 0.00 97 1015.6
20260508094558 59 140 0.0 0.0 0.00 2.22 0.00 97 1015.3
20260508094058 59 0 0.0 0.0 0.00 2.22 0.00 97 1015.2
20260508093558 58 0 0.0 0.0 0.00 2.22 0.00 97 1014.9
20260508093107 59 0 0.0 0.0 0.00 2.22 0.00 97 1014.8
20260508092556 59 0 0.0 0.0 0.00 2.22 0.00 97 1014.9
20260508092058 59 0 0.0 0.0 0.00 2.22 0.00 97 1014.9
20260508091608 59 0 0.0 0.0 0.00 2.22 0.00 97 1015.0
20260508091056 58 0 0.0 0.0 0.00 2.22 0.00 97 1015.1
20260508090556 58 0 0.0 0.0 0.00 2.22 0.00 97 1015.0